Regional Weather Roundup
Issued by NWS

Home | Current Version | Previous Version | Text Only | Print | Product List | Glossary Off
Versions: 1 2 3 4 5 6 7 8 9 10 11 12 13 14 15 16 17 18 19 20 21 22 23 24 25 26 27 28 29 30 31 32 33 34 35 36 37 38 39 40 41 42 43 44 45 46 47 48 49 50

000
ASUS45 KCYS 280110
RWRWY

WYOMING REGIONAL WEATHER ROUNDUP
NATIONAL WEATHER SERVICE CHEYENNE WY
700 PM MDT FRI MAR 27 2015

NOTE:  "FAIR" INDICATES FEW OR NO CLOUDS BELOW 12,000 FEET
WITH NO SIGNIFICANT WEATHER AND/OR OBSTRUCTIONS TO VISIBILITY.

WYZ001-280200-
YELLOWSTONE NATIONAL PARK

CITY           SKY/WX    TMP DP  RH WIND       PRES   REMARKS
LK YELLOWSTONE   N/A     50  25  37 W5        30.24F
W YELLOWSTONE  NOT AVBL

$$
WYZ002>013-054>058-071-098>099-280200-
NORTHERN WYOMING

CITY           SKY/WX    TMP DP  RH WIND       PRES   REMARKS
JACKSON        PTCLDY    55  32  41 S7        30.20S
CODY           FAIR      66  28  24 W12G18    30.05S
GREYBULL       FAIR      71  28  20 SW3       29.98F
WORLAND        FAIR      67  34  29 E8        30.00F
SHERIDAN       FAIR      65  33  30 NW13      29.97S
BUFFALO        FAIR      64  28  25 NW9       30.03R
GILLETTE       FAIR      63  33  32 N9        29.98R
HULETT         FAIR      61  30  31 NW7       29.99S
NEWCASTLE      FAIR      59  28  31 NW8       29.99R

$$
WYZ014>020-022>026-101>103-280200-
CENTRAL WYOMING

CITY           SKY/WX    TMP DP  RH WIND       PRES   REMARKS
BIG PINEY      FAIR      59  24  26 NW12      30.23S
PINEDALE       FAIR      54  28  37 NW10      30.24F
DUBOIS         FAIR      54  27  35 MISG      30.19F
LANDER         FAIR      66  24  20 N15       30.07R
RIVERTON       FAIR      67  21  17 NW17      30.07S
CASPER         FAIR      62  24  23 NW9       30.07R
DOUGLAS        FAIR      63  25  23 NW13G22   30.04R

$$
WYZ021-027>030-104>119-280200-
SOUTHERN WYOMING

CITY           SKY/WX    TMP DP  RH WIND       PRES   REMARKS
EVANSTON       FAIR      59  27  29 W14       30.26S
KEMMERER       FAIR      57  28  33 W12       30.26S
FORT BRIDGER   FAIR      64  27  24 W15G21    30.26S
ROCK SPRINGS   FAIR      62  20  19 W15       30.19R
DIXON          FAIR      63  23  22 NW9       30.19S
RAWLINS        FAIR      58  22  24 NW8       30.16S
SARATOGA       MOCLDY    61  23  23 MISG      30.18S
LARAMIE        FAIR      55  21  26 NW16G26   30.17R
CHEYENNE       FAIR      62  23  22 NW15G30   30.10R
TORRINGTON     FAIR      66  26  22 NW13      29.98R
PINE BLUFFS    MOCLDY    61  27  27 NW10      30.05S

$$


USA.gov is the U.S. government's official web portal to all federal, state and local government web resources and services.